www.pogodaiklimat.ru

Погода и климат >> Архив погоды >> Россия >> Камчатский край >> Мыс Озерной


ПОГОДА на Мысе Озерном

  • Прогноз погоды на Мысе Озерном
  • Монитор погоды на Мысе Озерном

АРХИВ ПОГОДЫ на Мысе Озерном

Время (UTC), дата Ветер
(напр.,м/с)
 
Видим.   Явления Облачность Т
(С)
Тd
(С)
f
(%)
Тe
(С)
Тes
(С)
Комфортность P
(гПа)
Po
(гПа)
Тmin
(С)
Tmax
(С)
R
(мм)
R24
(мм)
S
(см)
12 12.06 ЮЗ 1 20 км 4/0
[Ci fib]
+4.3 +1.7 83 +3 +3 1018.0 1016.9
18 12.06 З 2 50 км 3/0
[Ci fib]
+1.5 +0.2 91 -2 -1 1018.3 1017.1
21 12.06 В 1 50 км 3/0
[Ci fib]
+9.2 +4.8 74 +9 +17 1018.5 1017.4 -0.2
00 13.06 ЮВ 4 50 км 4/0
[Ci fib]
+8.0 +4.5 79 +5 +14 опасность
простуды
1018.6 1017.5
06 13.06 ЮВ 4 50 км ясно +10.2 +5.5 73 +8 +11 1017.4 1016.3
09 13.06 З 1 50 км ясно +7.3 +4.4 82 +6 +7 1017.5 1016.4 +11.9
12 13.06 З 1 20 км 1/1 200 м
[St]
+2.3 +1.4 94 +1 +1 1017.8 1016.6
18 13.06 СЗ 2 20 км в посл. час туман 3/1 100 м
[St Ci fib]
+0.5 +0.2 98 -3 -3 1017.2 1016.0
21 13.06 В 2 10 км туман на расстоянии 3/1 100 м
[St Ci fib]
+7.2 +6.3 94 +5 +11 1017.2 1016.1 -0.5
00 14.06 С 1 10 км туман на расстоянии 4/1 600 м
[Cu hum Ci fib]
+9.6 +5.2 74 +9 +23 опасность
простуды
1016.7 1015.6
06 14.06 С 3 50 км ясно +8.3 +5.2 81 +6 +10 1015.7 1014.6
09 14.06 штиль 0 50 км 1/0
[Ci fib]
+7.1 +5.1 87 +6 +6 1016.3 1015.2 +10.4
12 14.06 штиль 0 20 км 4/0
[Ci fib]
+4.5 +3.5 93 +3 +3 1017.0 1015.9
18 14.06 З 2 10 км слаб. дождь 10/10 300 м
[Frnb Ns]
+4.8 +3.8 93 +2 +2 1019.1 1018.0
21 14.06 штиль 0 20 км {дождь} 9/4 300 м
[St Ac trans Ci fib]
+7.5 +5.8 89 +7 +10 1020.6 1019.5 +3.4 0.9
00 15.06 В 2 50 км {дождь} 10/3 600 м
[Sc Ac lent Cs]
+9.9 +6.2 78 +8 +14 1021.5 1020.4
06 15.06 ЮВ 3 50 км 8/0
[Ci]
+9.9 +7.1 83 +8 +11 1021.8 1020.7
09 15.06 СЗ 1 20 км 8/0
[Ac trans Ci]
+8.6 +6.9 89 +8 +8 1022.9 1021.8 +11.2
12 15.06 штиль 0 20 км 4/0
[Ci fib]
+6.2 +5.2 93 +5 +5 1023.6 1022.5
18 15.06 СЗ 1 500 м туман ясно +2.7 +2.3 97 +1 +2 1024.5 1023.4
21 15.06 СВ 2 10 км туман местами ясно +7.5 +6.3 92 +5 +12 1024.4 1023.3 +2.7
00 16.06 ЮВ 3 50 км {туман} ясно +16.1 +5.7 50 +16 +28 опасность
простуды
1023.4 1022.3
06 16.06 С 2 10 км туман на расстоянии 8/0
[Cs]
+10.6 +6.2 74 +9 +14 1022.5 1021.4
09 16.06 С 2 20 км 10/0
[Cs]
+8.0 +5.6 85 +6 +6 1021.9 1020.8 +17.2
12 16.06 ЮВ 1 20 км 10/0
[Cs]
+7.3 +3.7 78 +7 +7 1021.3 1020.2
18 16.06 З 1 20 км 10/0
[Cs]
+4.5 +3.3 92 +3 +4 1020.6 1019.5
21 16.06 С 2 50 км 10/1 1000 м
[Sc As trans Cs]
+8.3 +6.3 87 +6 +10 1020.3 1019.2 +3.3
00 17.06 СВ 2 50 км 8/0
[Cs]
+9.1 +6.5 84 +7 +19 опасность
простуды
1019.6 1018.5
06 17.06 В 2 4000 м дымка 10/10 200 м
[St]
+7.0 +5.9 93 +5 +5 1017.9 1016.8
09 17.06 С 2 20 км 9/0
[Ac trans Cc]
+8.1 +6.4 89 +6 +6 1016.7 1015.6 +12.5
12 17.06 ЮЗ 2
{12}
20 км 9/0
[Ac As Ci sp]
+11.5 +1.7 51 +11 +11 1016.2 1015.1
18 17.06 ЮВ 3
{12}
20 км 10/8 1000 м
[Sc Ac As]
+8.3 +3.3 71 +6 +6 1015.4 1014.3
21 17.06 ЮВ 2 20 км 10/10 300 м
[St]
+7.4 +4.4 81 +5 +5 1016.6 1015.5 +7.4
00 18.06 ЮВ 3
{10}
20 км 10/4 300 м
[Sc Ac As]
+7.4 +4.7 83 +5 +7 1016.7 1015.6 +7.3
06 18.06 ЮВ 4
{11}
20 км 10/10 300 м
[St]
+7.4 +5.4 87 +4 +4 1015.7 1014.6
09 18.06 ЮВ 5
{12}
20 км 10/10 300 м
[St]
+6.9 +6.0 94 +3 +3 1015.4 1014.3 +8.5
12 18.06 ЮВ 4 20 км 10/10 200 м
[St]
+7.1 +6.3 95 +3 +3 1015.3 1014.2
18 18.06 ЮВ 5 500 м слаб. дождь {морось} ?/? +6.5 +6.1 97 +2 +2 1013.6 1012.5
21 18.06 ЮВ 5 500 м дождь {морось} туман ?/? +6.9 +6.5 97 +3 +3 1013.0 1011.9 +6.4 3
00 19.06 В 3 200 м слаб. дождь {морось} туман ?/? +5.8 +5.4 97 +2 +2 1013.0 1011.9 +5.5
06 19.06 СВ 2 200 м слаб. дождь {морось} туман ?/? +5.6 +5.3 98 +3 +3 1012.4 1011.3
09 19.06 ЮВ 3 4000 м в посл. час морось {дождь} 10/10 100 м
[St]
+6.6 +6.2 97 +3 +3 1012.6 1011.5 +6.9 3

 

Местоположение метеостанции Мыс Озерной (Камчатский край, Россия): широта 57.65 долгота 163.20 высота над уровнем моря 9 м.

В архиве по умолчанию представлена погода на Мысе Озерном за последнюю неделю. Архивные данные за месяц целиком и за предыдущие месяцы, начиная с января 2011 года, Вы можете получить, выбрав интересующий диапазон дат из раскрывающегося списка и нажав кнопку "Ввод!".


*Определитесь, кто Вы:
робот инопланетянин человек

Внимание! Время в таблицах - всемирное. Для получения местного времени необходимо прибавить поправку, которая равна 12 ч.

Смотрите также архив погоды в соседних городах и на ближайших метеорологических станциях:

Погода в Усть-Камчатске (Камчатский край, Россия) (162 км)
Погода на Мысе Африка (Камчатский край, Россия) (164 км)
Погода в Оссоре (Камчатский край, Россия) (176 км)
Погода в Ключах (Камчатский край, Россия) (207 км)
Погода в Палане (Камчатский край, Россия) (250 км)
Погода в Усть-Воямполке (Камчатский край, Россия) (259 км)
Погода в Козыревске (Камчатский край, Россия) (273 км)
Погода в Тигиле (Камчатский край, Россия) (274 км)
Погода на Острове Беринга (Камчатский край, Россия) (319 км)
Погода в Эссо (Камчатский край, Россия) (334 км)

Пояснения к столбцам:

Ветер - указаны скорость ветра в м/с - средняя за 10 мин, порывы в срок и между сроками (в фигурных скобках) и направление, откуда дует ветер: С - северный, СВ - северо-восточный, В - восточный, ЮВ - юго-восточный, Ю - южный, ЮЗ - юго-западный, З - западный, СЗ - северо-западный.
Видимость - горизонтальная дальность видимости в метрах или километрах. При видимости от 1 до 10 км при отсутствии осадков обычно наблюдается дымка, при ухудшении видимости до 1 км и менее - туман. В сухую погоду видимость может ухудшаться дымом, пылью или мглою.
Явления - указаны атмосферные явления, наблюдавшиеся в срок или в последний час перед сроком; фигурными скобками обозначены явления, наблюдавшиеся между сроками (за 1-3 часа до срока); квадратными скобками обозначены град или гололедные отложения с указанием их диаметра в мм.
Облачность - указаны через наклонную черту общая и нижняя облачность в баллах и высота нижней границы облаков в метрах; квадратными скобками обозначены формы облаков: Ci - перистые, Cs - перисто-слоистые, Cc - перисто-кучевые, Ac - высококучевые, As - высокослоистые, Sc - слоисто-кучевые, Ns - слоисто-дождевые, Cu - кучевые, Cb - кучево-дождевые. Подробнее классификацию облаков см. в Атласе облаков (PDF).
T - Температура воздуха - температура, измеренная на высоте 2 м над землей.
Td - Температура точки росы - температура, при понижении до которой содержащийся в воздухе водяной пар достигнет насыщения.
f - Относительная влажность воздуха - влажноcть воздуха, измеренная на высоте 2 м над землей.
Te - Эффективная температура - температура, которую ощущает одетый по сезону человек в тени. Характеристика душности погоды. При расчете учитывается влияние влажности воздуха и скорости ветра на теплоощущения человека.
Tes - Эффективная температура на солнце - температура, которую ощущает человек, с поправкой на солнечный нагрев. Характеристика знойности погоды. Зависит от высоты солнца над горизонтом, облачности и скорости ветра. Ночью, в пасмурную погоду, а также при ветре 12 м/с и более поправка равна нулю.
P - Атмосферное давление - приведенное к уровню моря атмосферное давление.
Po - Атмосферное давление - измеренное на уровне метеостанции атмосферное давление.
Tmin - Минимальная температура - минимум температуры воздуха на высоте 2 м над землей.
Tmax - Максимальная температура - максимум температуры воздуха на высоте 2 м над землей.
R - Количество осадков - Количество выпавших осадков за период времени, мм. При наведении курсора мыши на число - период времени, за который выпало указанное количество осадков.
R24 - Количество осадков - Количество выпавших осадков за 24 часа, мм.
S - Снежный покров - Высота снежного покрова, см. При наведении курсора мыши на число - состояние снежного покрова и степень покрытия местности в баллах.